Regional Weather Roundup
Issued by NWS Albany, NY

Home | Current Version | Previous Version | Graphics & Text | Print | Product List | Glossary Off
Versions: 1 2 3 4 5 6 7 8 9 10 11 12 13 14 15 16 17 18 19 20 21 22 23 24 25 26 27 28 29 30 31 32 33 34 35 36 37 38 39 40 41 42 43 44 45 46 47 48 49 50

000
ASUS41 KALY 312010
RWRALY

NEW YORK STATE HOURLY WEATHER ROUNDUP
NATIONAL WEATHER SERVICE ALBANY NY
300 PM EST SAT JAN 31 2015

NOTE: "FAIR" INDICATES FEW OR NO CLOUDS BELOW 12,000 FEET WITH NO
SIGNIFICANT WEATHER AND/OR NO OBSTRUCTIONS TO VISIBILITY.

NYZ032-033-038>043-046>054-057>066-NYZ062>081-312100-
EAST


CITY           SKY/WX    TMP DP  RH WIND       PRES   REMARKS
ALBANY         SUNNY     14  -5  42 W20G33    30.13S WCI  -3
GLENS FALLS    SUNNY     14  -6  40 E8        30.11R WCI   3
POUGHKEEPSIE   SUNNY     25  -6  25 N13G20    30.09R WCI  14
NEWBURGH       SUNNY     21  18  86 W16G28    30.08S WCI   7
MONTGOMERY     SUNNY     22  -4  32 NW23G30   30.08F WCI   6
WHITE PLAINS   SUNNY     22   0  38 NW24G32   30.04R WCI   5
ISLIP          SUNNY     24   2  38 NW15G30   30.03R WCI  11
NEW YORK CITY  MOSUNNY   26   1  34 NW28G35   30.09S WCI  10
CENTRAL PARK   SUNNY     26  -3  28 NW12G24   30.11S WCI  16
$$

NYZ005>009-017-018-044>046-055-056-312100-
CENTRAL


CITY           SKY/WX    TMP DP  RH WIND       PRES   REMARKS
FULTON         CLOUDY    13   4  67 NW3       30.24F
SYRACUSE       PTSUNNY   13   4  67 W7        30.24F WCI   3
ROME           PTSUNNY   11  -2  56 W16       30.24S WCI  -6
ELMIRA         PTSUNNY   22   7  52 NW12      30.19F WCI  10
BINGHAMTON     CLOUDY    14   4  64 NW9G18    30.12S WCI   2
MONTICELLO     SUNNY     16   1  53 NW22G29   30.05R WCI  -2
$$

NYZ026>034-041>043-312100-
NORTH


CITY           SKY/WX    TMP DP  RH WIND       PRES   REMARKS
WATERTOWN      SUNNY      8  -8  48 SE5       30.25F WCI   0
FORT DRUM      NOT AVBL
MASSENA        SUNNY      4 -12  48 SW13      30.24F WCI -13
SARANAC LAKE     N/A      5 -11  47 MISG      30.01F
PLATTSBURGH    SUNNY     14 -10  33 NW9       30.13S WCI   2
$$

NYZ001>004-010>016-019>021-312100-
WEST


CITY           SKY/WX    TMP DP  RH WIND       PRES   REMARKS
NIAGARA FALLS  PTSUNNY   21  13  71 SW16      30.20F WCI   7
BUFFALO        MOSUNNY   21  11  65 SW15      30.21F WCI   8
DUNKIRK        CLOUDY    23  12  62 SW13      30.23S WCI  11
JAMESTOWN      CLOUDY    19  10  68 S9        30.16S WCI   9
WELLSVILLE     MOSUNNY   19   6  57 W8        30.11F WCI   9
ROCHESTER      PTSUNNY   21   9  59 W13       30.22F WCI   9
PENN YAN       PTSUNNY   19   7  59 CALM      30.19F
$$

             KEY
       WCI = WIND CHILL INDEX
       VSB = VISIBILITY
       HX  = HEAT INDEX
$$



USA.gov is the U.S. government's official web portal to all federal, state and local government web resources and services.